Location: ?????????
(53.2086°N, 54.0693°E)
Time: 17:52:26
(UTC+00:00)

Helios 1A Rocket - Pass Details

Date: 08 December 2019
Orbit: 563 x 587 km, 98.3° (Epoch: 20 January)

Event Time Altitude Azimuth Distance (km) Brightness Sun altitude
Rises 12:41:09 0° 158° (SSE) 2,796 6.6 -5.1°
Reaches altitude 10° 12:43:18 10° 156° (SSE) 1,898 5.7 -5.3°
Maximum altitude 12:47:24 74° 72° (ENE) 608 2.9 -5.9°
Drops below altitude 10° 12:51:31 10° 348° (NNW) 1,899 5.4 -6.4°
Sets 12:53:40 0° 346° (NNW) 2,798 6.3 -6.7°
